TimeEST,TemperatureF,Dew PointF,Humidity,Sea Level PressureIn,VisibilityMPH,Wind Direction,Wind SpeedMPH,Gust SpeedMPH,PrecipitationIn,Events,Conditions,WindDirDegrees,DateUTC
12:13 AM,32.0,28.4,87,29.62,1.0,WNW,15.0,27.6,0.00,Snow,Light Snow,290,2013-02-20 05:13:00
12:31 AM,30.2,26.6,86,29.61,2.0,WNW,11.5,19.6,0.00,Snow,Light Snow,290,2013-02-20 05:31:00
12:37 AM,30.2,26.6,86,29.62,3.0,NW,10.4,21.9,0.00,Snow,Light Snow,310,2013-02-20 05:37:00
12:50 AM,30.2,28.4,93,29.62,4.0,WNW,5.8,-,0.00,Snow,Light Snow,290,2013-02-20 05:50:00
12:54 AM,30.9,28.0,89,29.64,4.0,Variable,5.8,-,0.00,Snow,Light Snow,0,2013-02-20 05:54:00
1:01 AM,30.2,28.4,93,29.62,1.8,Calm,Calm,-,0.00,Snow,Light Snow,0,2013-02-20 06:01:00
1:11 AM,30.2,26.6,86,29.63,3.0,South,4.6,-,0.00,Snow,Light Snow,190,2013-02-20 06:11:00
1:19 AM,30.2,24.8,80,29.63,7.0,Variable,5.8,-,0.00,Snow,Light Snow,0,2013-02-20 06:19:00
1:54 AM,30.0,24.1,79,29.65,5.0,Variable,3.5,-,0.01,Snow,Light Snow,0,2013-02-20 06:54:00
2:54 AM,28.9,21.0,72,29.67,6.0,West,10.4,21.9,0.00,Snow,Light Snow,270,2013-02-20 07:54:00
3:54 AM,27.0,17.1,66,29.69,10.0,WNW,15.0,21.9,0.00,,Overcast,290,2013-02-20 08:54:00
4:54 AM,26.1,16.0,66,29.69,10.0,WNW,9.2,17.3,N/A,,Overcast,290,2013-02-20 09:54:00
5:52 AM,26.6,17.6,69,29.67,6.0,Variable,5.8,21.9,0.00,Snow,Light Snow,0,2013-02-20 10:52:00
5:54 AM,26.1,17.1,69,29.69,6.0,Variable,6.9,21.9,0.00,Snow,Light Snow,0,2013-02-20 10:54:00
6:54 AM,25.0,17.1,72,29.69,10.0,West,10.4,20.7,0.00,,Overcast,280,2013-02-20 11:54:00
8:10 AM,24.8,15.8,69,29.69,10.0,Variable,6.9,16.1,N/A,,Overcast,0,2013-02-20 13:10:00
8:54 AM,25.0,16.0,69,29.72,10.0,WNW,9.2,19.6,N/A,,Overcast,290,2013-02-20 13:54:00
9:54 AM,25.0,15.1,66,29.72,10.0,West,9.2,24.2,N/A,,Mostly Cloudy,270,2013-02-20 14:54:00
10:54 AM,27.0,12.9,56,29.72,10.0,West,15.0,31.1,N/A,,Mostly Cloudy,280,2013-02-20 15:54:00
11:54 AM,27.0,10.0,49,29.71,10.0,West,16.1,23.0,N/A,,Overcast,260,2013-02-20 16:54:00
12:54 PM,26.1,10.9,53,29.71,10.0,Variable,6.9,25.3,N/A,,Overcast,0,2013-02-20 17:54:00
1:54 PM,26.1,9.0,49,29.71,10.0,West,15.0,25.3,N/A,,Overcast,280,2013-02-20 18:54:00
2:54 PM,26.1,10.0,51,29.73,10.0,West,11.5,23.0,N/A,,Overcast,270,2013-02-20 19:54:00
3:54 PM,26.1,10.0,51,29.75,10.0,West,12.7,24.2,N/A,,Overcast,280,2013-02-20 20:54:00
4:54 PM,25.0,9.0,51,29.77,10.0,West,15.0,19.6,N/A,,Overcast,260,2013-02-20 21:54:00
5:54 PM,24.1,10.0,55,29.80,10.0,West,10.4,20.7,N/A,,Overcast,260,2013-02-20 22:54:00
6:54 PM,23.0,10.9,60,29.83,10.0,West,12.7,21.9,N/A,,Overcast,280,2013-02-20 23:54:00
7:54 PM,23.0,12.0,63,29.83,10.0,Variable,5.8,-,N/A,,Overcast,0,2013-02-21 00:54:00
8:02 PM,23.0,12.2,63,29.79,10.0,WSW,10.4,23.0,N/A,,Overcast,250,2013-02-21 01:02:00
8:54 PM,23.0,12.9,65,29.83,10.0,West,12.7,19.6,N/A,,Overcast,270,2013-02-21 01:54:00
10:54 PM,23.0,14.0,68,29.85,10.0,West,6.9,-,N/A,,Overcast,270,2013-02-21 03:54:00
11:50 PM,23.0,12.2,63,29.83,10.0,Variable,5.8,-,N/A,,Overcast,0,2013-02-21 04:50:00
11:54 PM,23.0,12.9,65,29.86,10.0,Variable,6.9,-,N/A,,Overcast,0,2013-02-21 04:54:00